Mount Zion, GA

5:42 AM EST on February 07, 2016 (GMT -0500)
West Georgia Regional-Gray

Weather History for KCTJ - March, 2013

Change the Weather History Date:

Tuesday, March 26, 2013

  Actual Average Record
Temperature  
Mean Temperature 36 °F -  
Max Temperature 39 °F 67 °F 83 °F (1991)
Min Temperature 32 °F 39 °F 25 °F (1969)
Degree Days  
Heating Degree Days 30    
Moisture  
Dew Point 26 °F    
Average Humidity 71    
Maximum Humidity 87    
Minimum Humidity 60    
Precipitation  
Precipitation 0.00 in - - ()
Sea Level Pressure  
Sea Level Pressure 30.18 in    
Wind  
Wind Speed 7 mph (NW)    
Max Wind Speed 15 mph    
Max Gust Speed 22 mph    
Visibility 10 miles    
Events Snow    
Averages and records for this station are not official NWS values.
T = Trace of Precipitation, MM = Missing Value Source: NWS Daily Summary

Daily Weather History Graph

Daily Weather History Graph

Search for Another Location

Airport or City:

Trip Planner

Search our weather history database for the weather conditions in past years. The results will help you decide how hot, cold, wet, or windy it might be!

Date:

Astronomy

Mar. 26, 2013 Rise Set
Actual Time 7:35 AM EDT 7:56 PM EDT
Civil Twilight 7:10 AM EDT 8:21 PM EDT
Nautical Twilight 6:41 AM EDT 8:51 PM EDT
Astronomical Twilight 6:12 AM EDT 9:20 PM EDT
Moon 7:32 PM EDT (3/26) 6:51 AM EDT (3/26)
Length of Visible Light 13h 10m
Length of Day
12h 21m
Waxing Gibbous, 99% of the Moon is Illuminated
Mar 26
Waxing Gibbous
Mar 27
Full
Apr 3
Last Quarter
Apr 10
New
Apr 18
First Quarter

Hourly Weather History & Observations

Time (EDT) Temp. Windchill Dew Point Humidity Pressure Visibility Wind Dir Wind Speed Gust Speed Precip Events Conditions
12:15 AM 33.8 °F 30.8 °F 24.8 °F 70% 30.10 in 10.0 mi WNW 3.5 mph - N/A   Mostly Cloudy
12:35 AM 33.8 °F - 24.8 °F 70% 30.10 in 10.0 mi Calm Calm - N/A   Overcast
12:55 AM 33.8 °F 27.7 °F 24.8 °F 70% 30.10 in 10.0 mi WNW 6.9 mph - N/A   Mostly Cloudy
1:15 AM 32.0 °F 24.8 °F 23.0 °F 69% 30.10 in 10.0 mi NW 8.1 mph - N/A   Scattered Clouds
1:35 AM 32.0 °F 27.5 °F 24.8 °F 75% 30.10 in 10.0 mi NW 4.6 mph - N/A   Mostly Cloudy
1:55 AM 32.0 °F 27.5 °F 24.8 °F 75% 30.10 in 10.0 mi NW 4.6 mph - N/A   Overcast
2:15 AM 32.0 °F 25.6 °F 24.8 °F 75% 30.10 in 10.0 mi NW 6.9 mph - N/A   Overcast
2:35 AM 33.8 °F 27.0 °F 26.6 °F 75% 30.10 in 10.0 mi NW 8.1 mph - N/A   Overcast
2:55 AM 33.8 °F 25.8 °F 26.6 °F 75% 30.09 in 10.0 mi NW 10.4 mph - N/A   Overcast
3:15 AM 32.0 °F 26.4 °F 26.6 °F 80% 30.09 in 10.0 mi WNW 5.8 mph - N/A   Scattered Clouds
3:35 AM 32.0 °F 26.4 °F 26.6 °F 80% 30.08 in 10.0 mi NW 5.8 mph - N/A   Scattered Clouds
3:55 AM 32.0 °F 24.8 °F 26.6 °F 80% 30.08 in 10.0 mi WNW 8.1 mph - N/A   Scattered Clouds
4:15 AM 32.0 °F 26.4 °F 26.6 °F 80% 30.08 in 10.0 mi WNW 5.8 mph - N/A   Mostly Cloudy
4:35 AM 32.0 °F 27.5 °F 26.6 °F 80% 30.08 in 10.0 mi WNW 4.6 mph - N/A   Mostly Cloudy
4:55 AM 32.0 °F 27.5 °F 26.6 °F 80% 30.07 in 10.0 mi WNW 4.6 mph - N/A   Mostly Cloudy
5:15 AM 32.0 °F 25.6 °F 26.6 °F 80% 30.07 in 10.0 mi WNW 6.9 mph - N/A   Overcast
5:35 AM 32.0 °F 26.4 °F 26.6 °F 80% 30.07 in 10.0 mi WNW 5.8 mph - N/A   Overcast
5:55 AM 32.0 °F 24.8 °F 26.6 °F 80% 30.08 in 10.0 mi WNW 8.1 mph - N/A   Overcast
6:15 AM 32.0 °F 24.8 °F 26.6 °F 80% 30.08 in 10.0 mi WNW 8.1 mph - N/A   Overcast
6:35 AM 32.0 °F 24.8 °F 26.6 °F 80% 30.09 in 10.0 mi NW 8.1 mph - N/A   Overcast
6:55 AM 32.0 °F 25.6 °F 26.6 °F 80% 30.09 in 10.0 mi WNW 6.9 mph - N/A   Overcast
7:15 AM 32.0 °F 24.8 °F 28.4 °F 87% 30.10 in 10.0 mi WNW 8.1 mph - N/A Snow Light Snow
7:35 AM 32.0 °F 24.8 °F 28.4 °F 87% 30.10 in 7.0 mi WNW 8.1 mph - N/A Snow Light Snow
7:55 AM 32.0 °F 24.8 °F 28.4 °F 87% 30.11 in 10.0 mi NW 8.1 mph - N/A   Overcast
8:15 AM 32.0 °F 25.6 °F 28.4 °F 87% 30.12 in 10.0 mi NW 6.9 mph - N/A   Overcast
8:35 AM 32.0 °F 26.4 °F 28.4 °F 87% 30.13 in 10.0 mi WNW 5.8 mph - N/A   Overcast
8:55 AM 33.8 °F 26.4 °F 28.4 °F 81% 30.14 in 10.0 mi WNW 9.2 mph - N/A   Overcast
9:15 AM 33.8 °F 25.3 °F 28.4 °F 81% 30.15 in 10.0 mi WNW 11.5 mph - N/A   Overcast
9:35 AM 33.8 °F 25.3 °F 28.4 °F 81% 30.16 in 10.0 mi NW 11.5 mph 17.3 mph N/A   Overcast
9:55 AM 33.8 °F 25.3 °F 26.6 °F 75% 30.16 in 10.0 mi NW 11.5 mph 17.3 mph N/A   Overcast
10:15 AM 35.6 °F 26.2 °F 26.6 °F 70% 30.17 in 10.0 mi NW 15.0 mph 20.7 mph N/A   Overcast
10:35 AM 35.6 °F 27.5 °F 26.6 °F 70% 30.17 in 10.0 mi NW 11.5 mph 17.3 mph N/A   Overcast
10:55 AM 35.6 °F 28.6 °F 26.6 °F 70% 30.17 in 10.0 mi NW 9.2 mph 16.1 mph N/A   Overcast
11:15 AM 35.6 °F 27.5 °F 26.6 °F 70% 30.19 in 10.0 mi WNW 11.5 mph - N/A   Overcast
11:35 AM 35.6 °F 28.0 °F 24.8 °F 65% 30.19 in 10.0 mi NW 10.4 mph 18.4 mph N/A   Overcast
11:55 AM 35.6 °F 28.0 °F 26.6 °F 70% 30.20 in 10.0 mi NNW 10.4 mph - N/A   Overcast
12:15 PM 35.6 °F 27.1 °F 26.6 °F 70% 30.21 in 10.0 mi NW 12.7 mph 17.3 mph N/A   Overcast
12:35 PM 37.4 °F 30.8 °F 24.8 °F 60% 30.20 in 10.0 mi NNW 9.2 mph 18.4 mph N/A   Overcast
12:55 PM 37.4 °F 30.3 °F 26.6 °F 65% 30.21 in 10.0 mi NW 10.4 mph - N/A   Overcast
1:15 PM 37.4 °F 30.8 °F 26.6 °F 65% 30.21 in 10.0 mi NW 9.2 mph 18.4 mph N/A   Overcast
1:35 PM 39.2 °F 32.5 °F 26.6 °F 61% 30.20 in 10.0 mi NW 10.4 mph 16.1 mph N/A   Overcast
1:55 PM 37.4 °F 28.9 °F 24.8 °F 60% 30.21 in 10.0 mi NW 13.8 mph 19.6 mph N/A   Overcast
2:15 PM 37.4 °F 29.8 °F 24.8 °F 60% 30.21 in 10.0 mi NW 11.5 mph 21.9 mph N/A   Overcast
2:35 PM 37.4 °F 29.8 °F 26.6 °F 65% 30.22 in 10.0 mi NW 11.5 mph 20.7 mph N/A   Overcast
2:55 PM 37.4 °F 30.3 °F 26.6 °F 65% 30.21 in 10.0 mi NW 10.4 mph 17.3 mph N/A   Overcast
3:15 PM 37.4 °F 29.8 °F 26.6 °F 65% 30.21 in 10.0 mi NW 11.5 mph 19.6 mph N/A   Overcast
3:35 PM 37.4 °F 29.3 °F 26.6 °F 65% 30.21 in 10.0 mi NW 12.7 mph 18.4 mph N/A   Overcast
3:55 PM 37.4 °F 31.4 °F 26.6 °F 65% 30.21 in 10.0 mi NW 8.1 mph 16.1 mph N/A   Overcast
4:15 PM 37.4 °F 31.4 °F 26.6 °F 65% 30.21 in 10.0 mi WNW 8.1 mph - N/A   Overcast
4:35 PM 37.4 °F 29.3 °F 26.6 °F 65% 30.21 in 10.0 mi NW 12.7 mph 17.3 mph N/A   Overcast
4:55 PM 37.4 °F 32.8 °F 26.6 °F 65% 30.22 in 10.0 mi NNW 5.8 mph 17.3 mph N/A   Overcast
5:15 PM 39.2 °F 33.6 °F 26.6 °F 61% 30.22 in 10.0 mi NNW 8.1 mph - N/A   Overcast
5:35 PM 39.2 °F 32.5 °F 26.6 °F 61% 30.22 in 10.0 mi NW 10.4 mph 20.7 mph N/A   Overcast
5:55 PM 39.2 °F 33.0 °F 26.6 °F 61% 30.22 in 10.0 mi NW 9.2 mph 16.1 mph N/A   Overcast
6:15 PM 37.4 °F 30.8 °F 26.6 °F 65% 30.22 in 10.0 mi NW 9.2 mph 17.3 mph N/A   Overcast
6:35 PM 37.4 °F 29.8 °F 26.6 °F 65% 30.23 in 10.0 mi NNW 11.5 mph 16.1 mph N/A   Overcast
6:55 PM 37.4 °F 30.3 °F 26.6 °F 65% 30.24 in 10.0 mi NW 10.4 mph - N/A   Overcast
7:15 PM 37.4 °F 30.8 °F 26.6 °F 65% 30.24 in 10.0 mi NW 9.2 mph - N/A   Overcast
7:35 PM 37.4 °F 31.4 °F 26.6 °F 65% 30.24 in 10.0 mi NW 8.1 mph - N/A   Overcast
7:55 PM 37.4 °F 28.9 °F 26.6 °F 65% 30.25 in 10.0 mi NW 13.8 mph 18.4 mph N/A   Overcast
8:15 PM 37.4 °F 32.8 °F 26.6 °F 65% 30.25 in 10.0 mi NW 5.8 mph - N/A   Overcast
8:35 PM 37.4 °F 32.8 °F 26.6 °F 65% 30.26 in 10.0 mi NW 5.8 mph - N/A   Overcast
8:55 PM 37.4 °F 32.8 °F 26.6 °F 65% 30.26 in 10.0 mi NW 5.8 mph - N/A   Overcast
9:15 PM 37.4 °F 32.1 °F 26.6 °F 65% 30.27 in 10.0 mi WNW 6.9 mph - N/A   Overcast
9:35 PM 35.6 °F 29.9 °F 26.6 °F 70% 30.28 in 10.0 mi NW 6.9 mph - N/A   Overcast
9:55 PM 35.6 °F 29.9 °F 26.6 °F 70% 30.29 in 10.0 mi NNW 6.9 mph - N/A   Overcast
10:15 PM 35.6 °F 29.2 °F 26.6 °F 70% 30.29 in 10.0 mi NNW 8.1 mph - N/A   Overcast
10:35 PM 35.6 °F 28.6 °F 24.8 °F 65% 30.29 in 10.0 mi NNW 9.2 mph - N/A   Overcast
10:55 PM 35.6 °F 27.5 °F 23.0 °F 60% 30.29 in 10.0 mi NNW 11.5 mph - N/A   Overcast
11:15 PM 35.6 °F 28.0 °F 23.0 °F 60% 30.30 in 10.0 mi North 10.4 mph - N/A   Overcast
11:35 PM 35.6 °F 30.7 °F 23.0 °F 60% 30.30 in 10.0 mi NNW 5.8 mph - N/A   Mostly Cloudy
11:55 PM 35.6 °F 29.2 °F 23.0 °F 60% 30.30 in 10.0 mi NNW 8.1 mph - N/A   Scattered Clouds